Theta_e
344 344 350 349 347 346 344 347 346 345 335 343 342 340 340 341 339 339 337 333 333 330
353 353 352 350 352 349 346 346 344 340 338 340 338 341 340 336 337 335 334 330 332 330
350 349 352 350 347 343 341 340 340 339 339 339 337 338 338 335 335 332 332 330 329 329
345 342 338 337 338 334 337 338 338 338 338 337 337 338 338 336 333 330 330 328 328 327
333 336 336 337 338 339 338 336 334 335 334 334 334 336 335 332 327 327 325 325 326 325
327 327 329 328 329 331 331 332 333 332 331 331 331 331 332 330 328 327 326 325 325 324
325 326 326 325 325 326 327 327 327 327 327 327 326 325 325 326 326 327 327 327 326 325
322 324 323 323 323 323 325 323 323 322 322 322 322 321 321 321 320 320 321 323 324 323
317 318 320 319 319 322 321 321 320 318 318 317 317 308 307 309 312 313 313 313 315 316
315 314 316 316 316 316 317 318 316 315 314 314 315 306 302 303 308 309 309 309 310 310
311 311 312 312 312 314 315 314 312 313 313 312 313 304 299 299 308 309 309 310 310 310
309 309 309 308 310 311 311 310 310 310 310 311 311 297 296 298 301 302 302 303 304 304
308 308 307 308 308 309 309 309 309 307 307 306 306 301 298 297 298 297 299 300 301 300
307 307 308 309 309 307 305 305 305 303 303 302 302 302 296 295 297 297 297 298 299 300
Wind_Speed
14 10 8 6 6 10 12 11 13 10 10 12 12 5 3 4 3 3 5 6 5 4
9 11 8 8 8 8 11 9 12 12 12 12 6 5 6 4 7 5 5 5 6 5
7 8 5 3 6 7 4 11 12 11 9 6 6 7 8 7 5 6 5 5 7 6
4 4 3 9 4 3 3 10 7 7 6 7 7 7 6 6 6 6 6 7 7 7
11 5 4 3 3 4 5 3 4 7 7 8 9 8 9 9 9 8 10 10 9 9
10 11 11 10 10 11 11 10 8 7 6 5 5 5 6 9 11 12 13 11 11 10
7 6 7 7 7 7 7 7 6 6 6 6 7 8 8 9 8 8 9 8 11 12
5 5 5 5 5 6 5 5 6 8 8 8 8 8 7 7 9 10 11 10 11 13
6 5 4 4 4 3 4 5 5 6 9 10 9 13 15 9 9 11 11 12 12 13
6 6 4 4 5 6 6 6 7 8 10 11 11 12 11 11 10 11 11 12 11 12
9 8 9 9 8 7 6 8 8 9 10 11 10 11 9 11 8 10 11 11 12 13
11 10 10 9 9 8 9 9 9 11 12 11 10 8 6 10 10 10 11 11 12 11
10 10 10 10 10 9 9 10 8 11 11 13 13 13 13 9 8 12 10 11 12 15
10 11 11 10 8 10 10 10 10 10 10 12 12 11 11 10 6 7 8 8 9 9
Wind_Direction
228 230 232 227 237 203 203 197 190 182 207 182 188 182 193 152 183 181 191 206 216 223
232 219 231 234 230 212 195 201 154 171 190 208 195 165 180 201 190 190 210 206 218 216
251 254 239 294 255 255 202 190 179 164 166 183 166 185 194 204 201 208 210 208 219 223
62 78 360 82 309 185 277 139 136 129 157 182 194 202 198 214 233 229 212 223 231 230
26 55 72 112 77 63 104 78 79 151 186 196 201 198 206 208 222 222 226 225 223 221
29 28 24 30 17 15 9 14 13 1 332 298 272 243 227 222 225 231 236 233 235 231
36 36 24 20 9 9 8 1 345 327 315 305 302 301 295 288 277 265 262 246 239 239
28 19 30 23 359 343 335 321 318 312 308 303 297 286 299 326 334 325 314 303 285 271
19 3 348 311 275 286 300 311 307 297 300 301 301 308 319 319 308 298 298 298 296 294
326 308 307 322 325 335 330 320 308 303 298 290 287 280 294 303 302 305 298 292 290 289
325 334 338 338 328 325 323 306 302 298 292 287 285 289 344 1 312 301 298 294 290 287
337 331 325 316 315 311 310 310 306 299 292 295 310 80 62 349 326 308 301 298 296 298
322 316 316 317 311 300 292 295 316 322 315 311 315 328 316 304 304 294 291 290 277 266
321 316 304 301 333 335 322 314 311 308 309 297 287 299 321 303 290 287 296 297 297 293